STARLINK-37093, 68194

Orbit data source: Space-Track

STARLINK-37093, 68194 is a payload satellite owned by SpaceX/Seattle (US) in LEO that was launched on Sat, 14 Mar 2026 UTC via an FALCON 9 launch vehicle from the Air Force Eastern Test Range (AFETR). Payload-class satellites include a variety of spacecraft equipped with specific instruments for various scientific and technological missions. These include communications satellites like Starlink; space stations such as the ISS; scientific satellites like the Hubble; Earth observation satellites from companies like Planet Labs, Umbra, and HawkEye 360; GPS; miniature CubeSats for education and research; and military/defense satellites.

Loading next visibility...
Identifier
68194, 2026-050AD
Orbit
LEO
Country
Flag of USUS
Related business
Manufacturer
SpaceX/Seattle
Mission
Operational spacecraft
Bus & Motor
STARLINK V2MO, Unknown motor
Mass
575 kg wet, ~530 kg dry
Launch date (UTC)
2026-03-14 (3 months ago)
Launch vehicle
FALCON 9
Launch site
Air Force Eastern Test Range (AFETR)
Object type
Payload
Rocket body
Debris
Shape & HBR
Unknown shape, 17.7 m
Radar Cross Section
Large (>1 m²)

Expand to show TLE details & history
Last TLE update: 16 hours ago

TLE from 16 hours ago
0 STARLINK-37093
1 68194U 26050AD  26171.24102198  .00016780  00000-0  50652-3 0  9998
2 68194  53.1583 149.0255 0001382  96.5711 263.5449 15.34408362 16404
Epoch: 2026-06-20T05:47Z
TLE epoch observation values (Epoch: 2026-06-20T05:47:04.299Z)
Latitude
0.00001°
Longitude
153.79912°
Altitude
463.686 km
Speed
7.636 km/s
True Right ascension
09h 56m 06s
True Declination
0° 00' 00"
Sunlit
Object was in daylight at epoch
Visualization orbit readout
Latitude
Unknown
Longitude
Unknown
Altitude
Unknown
Speed
Unknown
Apparent Right ascension
Unknown
Apparent Declination
Unknown
Sunlit
N/A
Visualization observer readout
Local Sidereal Time
08:41:41
Azimuth
Unknown
Elevation
Unknown
Doppler factor
Unknown
Orbital elements
Apogee altitude
463.881 km
Perigee altitude
461.99 km
Semi-major axis
6,841.073 km
Eccentricity
0.00014
Inclination
53.1583°
RAAN
149.0255°
Arg. of periapsis
96.5711°
True anomaly
263.52916°
Mean anomaly
263.5449°
Eccentric anomaly
263.53703°
Mean motion
3.83581 °/min
Orbital period
93.85 mins
BSTAR
0.00050652
Loading maneuver chart data...
Computing Atmospheric mass density...
Loading historical data...
Loading historical data...
Loading historical data...
Loading historical data...
Loading historical data...
Loading historical data...
Loading historical data...

Documentation

Showing up to 5 results
|